OVERFALLS Weather Reports


Display with metric or nautical units.
time (UTC)temp
F
wind
direction
speed
MPH
gust
MPH
rain 1hr
in
rain 24hr
in
rain mn
in
humidity
%
barometer
mb
20260904004559 83 0 1.0 4.0 0.00 0.00 0.00 85 1014.9
20260904003053 83 226 0.0 4.0 0.00 0.00 0.00 84 1014.6
20260904001549 83 226 1.0 4.0 0.00 0.00 0.00 83 1014.5
20260904000051 84 226 1.0 4.0 0.00 0.00 0.00 82 1014.1
20260903234555 84 226 1.0 5.0 0.00 0.00 0.00 80 1013.8
20260903233054 85 257 2.0 6.0 0.00 0.00 0.00 77 1014.0
20260903231555 86 257 1.0 4.0 0.00 0.00 0.00 73 1013.9
20260903224554 87 252 1.0 4.0 0.00 0.00 0.00 70 1013.9
20260903223102 87 239 3.0 10.0 0.00 0.00 0.00 69 1013.8
20260903221555 88 248 6.0 10.0 0.00 0.00 0.00 68 1013.8
20260903220055 88 259 4.0 12.0 0.00 0.00 0.00 68 1013.9
20260903214602 88 261 7.0 13.0 0.00 0.00 0.00 68 1013.7
20260903213100 89 306 8.0 15.0 0.00 0.00 0.00 66 1013.9
20260903211556 89 264 8.0 14.0 0.00 0.00 0.00 69 1013.9
20260903210055 89 246 7.0 15.0 0.00 0.00 0.00 67 1013.8
20260903204556 89 257 7.0 17.0 0.00 0.00 0.00 68 1014.1
20260903203059 89 257 8.0 15.0 0.00 0.00 0.00 67 1014.1
20260903201558 89 275 7.0 14.0 0.00 0.00 0.00 70 1014.1
20260903200054 89 244 7.0 14.0 0.00 0.00 0.00 71 1014.4
20260903194553 88 258 7.0 13.0 0.00 0.00 0.00 73 1014.4
20260903193050 88 260 7.0 12.0 0.00 0.00 0.00 73 1014.7
20260903191554 88 267 9.0 15.0 0.00 0.00 0.00 73 1014.9
20260903190053 87 277 8.0 13.0 0.00 0.00 0.00 75 1015.0
20260903184552 87 258 8.0 13.0 0.00 0.00 0.00 75 1015.0
20260903183055 86 249 5.0 10.0 0.00 0.00 0.00 78 1015.2
20260903181553 86 267 3.0 11.0 0.00 0.00 0.00 78 1015.8
20260903180116 85 267 5.0 11.0 0.00 0.00 0.00 77 1015.7
20260903174554 86 266 6.0 12.0 0.00 0.00 0.00 77 1015.9
20260903173052 86 252 4.0 16.0 0.00 0.00 0.00 76 1016.0
20260903171554 86 266 8.0 14.0 0.00 0.00 0.00 77 1016.2
20260903170059 85 268 6.0 14.0 0.00 0.00 0.00 77 1016.2
20260903164601 85 254 7.0 17.0 0.00 0.00 0.00 76 1016.4
20260903163053 86 242 5.0 11.0 0.00 0.00 0.00 76 1016.6
20260903161551 85 261 8.0 16.0 0.00 0.00 0.00 76 1016.5
20260903160107 85 271 8.0 16.0 0.00 0.00 0.00 75 1016.4
20260903154554 85 208 8.0 18.0 0.00 0.00 0.00 77 1016.4
20260903153054 84 202 9.0 18.0 0.00 0.00 0.00 78 1016.4
20260903151556 84 209 5.0 14.0 0.00 0.00 0.00 81 1016.4
20260903150058 82 221 6.0 12.0 0.00 0.00 0.00 83 1016.5
20260903144558 81 198 5.0 11.0 0.00 0.00 0.00 86 1016.5
20260903143057 79 211 8.0 12.0 0.00 0.00 0.00 87 1016.5
20260903141557 78 191 5.0 12.0 0.00 0.00 0.00 88 1017.0
20260903140057 78 213 7.0 15.0 0.00 0.00 0.00 88 1016.6
20260903134553 78 216 5.0 14.0 0.00 0.00 0.00 87 1016.5
20260903133051 78 188 4.0 11.0 0.00 0.00 0.00 88 1017.0
20260903131557 78 194 3.0 9.0 0.00 0.00 0.00 89 1017.5
20260903130116 77 147 4.0 10.0 0.00 0.00 0.00 91 1017.7
20260903124601 77 161 1.0 9.0 0.00 0.01 0.00 94 1018.1
20260903123101 76 123 2.0 6.0 0.00 0.01 0.00 95 1018.7
20260903121557 75 122 2.0 6.0 0.00 0.01 0.00 96 1018.7
20260903120058 74 122 3.0 6.0 0.00 0.01 0.00 96 1018.6
20260903114554 74 101 3.0 9.0 0.00 0.01 0.00 96 1018.6
20260903113059 75 73 5.0 10.0 0.00 0.01 0.00 96 1018.6
20260903111605 74 60 3.0 8.0 0.00 0.01 0.00 96 1018.4
20260903110112 74 84 3.0 8.0 0.00 0.01 0.00 96 1018.3
20260903104556 74 67 4.0 9.0 0.00 0.01 0.00 96 1018.1
20260903103056 75 18 1.0 3.0 0.00 0.01 0.00 97 1018.1
20260903101604 75 107 1.0 2.0 0.00 0.01 0.00 97 1018.3
20260903100053 74 0 0.0 0.0 0.00 0.01 0.00 96 1017.7
20260903094559 75 0 0.0 1.0 0.00 0.01 0.00 97 1017.5
20260903093056 75 0 0.0 2.0 0.00 0.01 0.00 97 1017.5
20260903091553 75 0 0.0 3.0 0.00 0.01 0.00 97 1017.5
20260903090101 75 107 2.0 6.0 0.00 0.01 0.00 96 1017.4
20260903084557 75 98 1.0 4.0 0.00 0.01 0.00 96 1017.4
20260903083059 75 49 1.0 6.0 0.00 0.01 0.00 96 1017.8
20260903081553 75 59 4.0 8.0 0.00 0.01 0.00 96 1017.7
20260903080104 75 42 4.0 12.0 0.00 0.00 0.00 97 1018.1
20260903074607 75 23 4.0 8.0 0.00 0.00 0.00 97 1018.3
20260903073055 75 57 2.0 4.0 0.00 0.00 0.00 97 1017.6
20260903071556 74 0 0.0 1.0 0.00 0.00 0.00 96 1017.2
20260903070052 75 137 0.0 2.0 0.00 0.00 0.00 96 1016.9
20260903064601 74 137 0.0 3.0 0.00 0.00 0.00 96 1016.7
20260903063054 74 68 1.0 4.0 0.00 0.00 0.00 96 1016.8
20260903061559 75 127 3.0 5.0 0.00 0.00 0.00 96 1016.7
20260903060100 75 120 1.0 2.0 0.00 0.00 0.00 96 1017.2
20260903054557 74 120 1.0 3.0 0.00 0.00 0.00 96 1017.3
20260903053108 74 0 0.0 2.0 0.00 0.00 0.00 96 1017.8
20260903051603 74 0 0.0 3.0 0.00 0.00 0.00 96 1018.0
20260903050104 74 0 0.0 1.0 0.00 0.00 0.00 96 1018.3
20260903044558 75 118 3.0 7.0 0.00 0.48 0.00 96 1017.7
20260903043051 75 87 2.0 5.0 0.00 0.48 0.00 96 1017.9
20260903041604 75 76 2.0 7.0 0.00 0.48 0.00 96 1018.3
20260903040059 75 113 2.0 4.0 0.00 0.48 0.00 96 1018.3
20260903034550 75 113 2.0 4.0 0.00 0.57 0.48 96 1018.4
20260903033112 75 113 2.0 4.0 0.00 0.57 0.48 96 1017.9
20260903031555 75 113 0.0 3.0 0.00 0.57 0.48 96 1018.2
20260903030054 75 113 3.0 6.0 0.00 0.57 0.48 95 1018.3
20260903024606 75 113 0.0 3.0 0.00 0.57 0.48 95 1018.4
20260903023052 75 113 1.0 4.0 0.00 0.57 0.48 95 1018.4
20260903021606 75 113 3.0 7.0 0.00 0.57 0.48 95 1018.1
20260903020056 75 109 4.0 8.0 0.00 0.57 0.48 95 1018.0
20260903014554 75 101 3.0 7.0 0.00 0.57 0.48 95 1018.2
20260903013100 75 128 4.0 9.0 0.00 0.57 0.48 94 1018.3
20260903011559 75 122 4.0 8.0 0.00 0.57 0.48 94 1018.4
20260903010110 75 103 5.0 8.0 0.00 0.57 0.48 94 1018.4